Cortez, CO

4:06 AM MST on December 10, 2019 (GMT -0700)
Cortez Municipal

Weather History for KCEZ - November, 2019

Change the Weather History Date:

Tuesday, November 19, 2019

  Actual Average Record
Temperature  
Mean Temperature 41 °F 36 °F  
Max Temperature 64 °F 50 °F 69 °F (2007)
Min Temperature 18 °F 21 °F 8 °F (2017)
Degree Days  
Heating Degree Days 24 30  
Month to date heating degree days 487 494  
Since 1 July heating degree days 1252 1176  
Cooling Degree Days 0 0  
Month to date cooling degree days 0 0  
Year to date cooling degree days 547 426  
Moisture  
Dew Point 23 °F    
Average Humidity 55    
Maximum Humidity 89    
Minimum Humidity 20    
Precipitation  
Precipitation 0.06 in 0.04 in 0.06 in (2019)
Month to date precipitation 0.06 0.85  
Year to date precipitation 10.13 12.27  
Sea Level Pressure  
Sea Level Pressure 29.91 in    
Wind  
Wind Speed 6 mph (SE)    
Max Wind Speed 16 mph    
Max Gust Speed 22 mph    
Visibility 10 miles    
Events Rain    
T = Trace of Precipitation, MM = Missing Value Source: NWS Daily Summary

Daily Weather History Graph

Daily Weather History Graph

Search for Another Location

Airport or City:

Astronomy

Nov. 19, 2019 Rise Set
Actual Time 6:57 AM MST 5:01 PM MST
Civil Twilight 6:29 AM MST 5:29 PM MST
Nautical Twilight 5:57 AM MST 6:01 PM MST
Astronomical Twilight 5:26 AM MST 6:32 PM MST
Moon 11:59 PM MST (11/19) 1:11 PM MST (11/19)
Length of Visible Light 11h 00m
Length of Day
10h 03m
Waning Gibbous, 51% of the Moon is Illuminated
Nov 19
Waning Gibbous
Nov 19
Last Quarter
Nov 26
New
Dec 3
First Quarter
Dec 11
Full

Hourly Weather History & Observations

Time (MST) Temp. Windchill Dew Point Humidity Pressure Visibility Wind Dir Wind Speed Gust Speed Precip Events Conditions
12:53 AM 23.0 °F 15.8 °F 14.0 °F 68% 30.02 in 10.0 mi NE 5.8 mph - N/A   Clear
1:53 AM 23.0 °F 18.4 °F 14.0 °F 68% 30.01 in 10.0 mi Variable 3.5 mph - N/A   Clear
2:53 AM 23.0 °F 14.7 °F 14.0 °F 68% 30.00 in 10.0 mi NE 6.9 mph - N/A   Clear
3:53 AM 21.9 °F 14.5 °F 14.0 °F 72% 30.00 in 10.0 mi ENE 5.8 mph - N/A   Clear
4:53 AM 21.0 °F 16.2 °F 12.9 °F 71% 30.01 in 10.0 mi East 3.5 mph - N/A   Clear
5:53 AM 19.9 °F - 10.9 °F 68% 30.06 in 10.0 mi Calm Calm - N/A   Clear
6:53 AM 19.0 °F - 12.0 °F 74% 30.07 in 10.0 mi Calm Calm - N/A   Clear
7:53 AM 25.0 °F 19.3 °F 16.0 °F 69% 30.06 in 10.0 mi NE 4.6 mph - N/A   Clear
8:53 AM 37.0 °F - 19.9 °F 50% 30.01 in 10.0 mi Calm Calm - N/A   Clear
9:53 AM 48.0 °F - 24.1 °F 39% 30.00 in 10.0 mi Calm Calm - N/A   Clear
10:53 AM 52.0 °F - 24.1 °F 34% 29.96 in 10.0 mi SSW 8.1 mph - N/A   Clear
11:53 AM 57.0 °F - 24.1 °F 28% 29.93 in 10.0 mi SW 5.8 mph - N/A   Clear
12:53 PM 60.1 °F - 24.1 °F 25% 29.90 in 10.0 mi SW 9.2 mph - N/A   Clear
1:53 PM 61.0 °F - 19.9 °F 21% 29.86 in 10.0 mi South 8.1 mph - N/A   Clear
2:53 PM 63.0 °F - 23.0 °F 22% 29.81 in 10.0 mi SSW 10.4 mph - N/A   Clear
3:53 PM 61.0 °F - 23.0 °F 23% 29.80 in 10.0 mi SW 8.1 mph - N/A   Clear
4:53 PM 55.9 °F - 23.0 °F 28% 29.81 in 10.0 mi South 4.6 mph - N/A   Mostly Cloudy
5:53 PM 51.1 °F - 21.0 °F 31% 29.82 in 10.0 mi ENE 3.5 mph - N/A   Overcast
6:53 PM 52.0 °F - 30.9 °F 45% 29.86 in 10.0 mi WNW 12.7 mph 19.6 mph 0.00 in Rain Light Rain
7:53 PM 50.0 °F - 37.0 °F 61% 29.84 in 10.0 mi NW 8.1 mph - 0.00 in Rain Light Rain
9:53 PM 45.0 °F 40.1 °F 41.0 °F 86% 29.75 in 7.0 mi ENE 9.2 mph - 0.05 in Rain Light Rain
10:53 PM 45.0 °F 39.7 °F 39.9 °F 82% 29.69 in 10.0 mi ENE 10.4 mph - 0.00 in   Overcast
11:53 PM 42.1 °F 40.2 °F 39.0 °F 89% 29.67 in 10.0 mi SE 3.5 mph - N/A   Partly Cloudy